This is the latest recevied weather packets stored in our database for station/object K2YYD-2. If no packets are shown the sender has not sent any weather packets the latest 10 day(s).
| Time | Temp. | Humidity | Pressure | Rain* | Wind** | Luminosity | Snow |
|---|---|---|---|---|---|---|---|
| 1778247473 | 14.44° C | 51% | 1008.7 hPa | 0 mm | - | 574 W/m² | - |
| 1778247353 | 14.44° C | 48% | 1008.7 hPa | 0 mm | - | 509 W/m² | - |
| 1778247235 | 14.44° C | 48% | 1008.7 hPa | 0 mm | - | 350 W/m² | - |
| 1778247153 | 14.44° C | 49% | 1008.7 hPa | 0 mm | - | 489 W/m² | - |
| 1778246994 | 14.44° C | 47% | 1008.7 hPa | 0 mm | - | 515 W/m² | - |
| 1778246874 | 14.44° C | 47% | 1008.7 hPa | 0 mm | - | 519 W/m² | - |
| 1778246753 | 14.44° C | 48% | 1008.7 hPa | 0 mm | - | 555 W/m² | - |
| 1778246634 | 14.44° C | 51% | 1008.7 hPa | 0 mm | - | 427 W/m² | - |
| 1778246514 | 13.89° C | 50% | 1008.7 hPa | 0 mm | - | 219 W/m² | - |
| 1778246394 | 13.89° C | 52% | 1008.8 hPa | 0 mm | - | 254 W/m² | - |
| 1778246273 | 13.33° C | 54% | 1008.7 hPa | 0 mm | - | 332 W/m² | - |
| 1778246153 | 13.33° C | 54% | 1008.7 hPa | 0 mm | - | 531 W/m² | - |
| 1778246034 | 13.33° C | 56% | 1008.7 hPa | 0 mm | - | 521 W/m² | - |
| 1778245914 | 13.33° C | 53% | 1008.7 hPa | 0 mm | - | 544 W/m² | - |
| 1778245793 | 13.33° C | 55% | 1008.7 hPa | 0 mm | - | 556 W/m² | - |
| 1778245673 | 13.33° C | 54% | 1008.8 hPa | 0 mm | - | 464 W/m² | - |
| 1778245551 | 13.33° C | 55% | 1008.8 hPa | 0 mm | - | 411 W/m² | - |
| 1778245430 | 13.33° C | 55% | 1008.8 hPa | 0 mm | - | 476 W/m² | - |
| 1778245308 | 13.33° C | 56% | 1008.8 hPa | 0 mm | - | 511 W/m² | - |
| 1778245189 | 13.33° C | 56% | 1008.8 hPa | 0 mm | - | 521 W/m² | - |
| 1778245068 | 13.33° C | 56% | 1008.9 hPa | 0 mm | - | 404 W/m² | - |
| 1778244945 | 13.33° C | 58% | 1008.9 hPa | 0 mm | - | 449 W/m² | - |
| 1778244826 | 13.33° C | 58% | 1008.8 hPa | 0 mm | - | 496 W/m² | - |
| 1778244705 | 13.33° C | 58% | 1008.8 hPa | 0 mm | - | 493 W/m² | - |
| 1778244585 | 13.33° C | 58% | 1008.8 hPa | 0 mm | - | 484 W/m² | - |
* Rain latest hour (hover to see other rain measurements)
** Current wind speed in m/s (hover to see current wind gust speed)